TimeCST,TemperatureF,Dew PointF,Humidity,Sea Level PressureIn,VisibilityMPH,Wind Direction,Wind SpeedMPH,Gust SpeedMPH,PrecipitationIn,Events,Conditions,WindDirDegrees,DateUTC
12:53 AM,-15.0,-20.0,78,30.29,10.0,Calm,Calm,-,N/A,,Clear,0,2013-01-01 06:53:00
2:53 AM,-17.0,-23.1,74,30.29,10.0,Calm,Calm,-,N/A,,Clear,0,2013-01-01 08:53:00
3:53 AM,-18.0,-25.1,70,30.28,10.0,Calm,Calm,-,N/A,,Clear,0,2013-01-01 09:53:00
4:53 AM,-18.9,-24.0,78,30.28,10.0,Calm,Calm,-,N/A,,Clear,0,2013-01-01 10:53:00
5:53 AM,-18.9,-25.1,74,30.28,10.0,Calm,Calm,-,N/A,,Clear,0,2013-01-01 11:53:00
6:53 AM,-18.9,-24.0,78,30.26,10.0,Calm,Calm,-,N/A,,Clear,0,2013-01-01 12:53:00
7:53 AM,-20.0,-25.1,78,30.25,10.0,Calm,Calm,-,N/A,,Clear,0,2013-01-01 13:53:00
8:53 AM,-17.0,-20.9,82,30.24,10.0,Calm,Calm,-,N/A,,Clear,0,2013-01-01 14:53:00
9:53 AM,-8.0,-11.9,83,30.22,10.0,Calm,Calm,-,N/A,,Clear,0,2013-01-01 15:53:00
11:04 AM,1.4,-2.2,85,30.06,10.0,West,8.1,-,N/A,,Mostly Cloudy,280,2013-01-01 17:04:00
11:53 AM,6.1,1.0,80,30.16,2.5,WSW,5.8,-,0.00,Snow,Light Snow,250,2013-01-01 17:53:00
12:05 PM,6.8,1.4,79,30.02,3.0,West,6.9,-,0.00,Snow,Light Snow,260,2013-01-01 18:05:00
12:53 PM,8.1,1.9,76,30.13,5.0,Variable,5.8,-,0.00,Snow,Light Snow,0,2013-01-01 18:53:00
1:44 PM,10.4,3.2,73,29.98,2.0,West,6.9,-,0.00,Snow,Light Snow,280,2013-01-01 19:44:00
1:53 PM,10.0,3.9,76,30.11,1.5,West,10.4,16.1,0.00,Snow,Light Snow,270,2013-01-01 19:53:00
2:12 PM,10.4,3.2,73,29.98,2.5,West,10.4,-,0.00,Snow,Light Snow,280,2013-01-01 20:12:00
2:37 PM,10.4,3.2,73,29.97,3.0,West,8.1,17.3,0.00,Snow,Light Snow,280,2013-01-01 20:37:00
2:40 PM,10.4,3.2,73,29.97,2.5,West,6.9,17.3,0.00,Snow,Light Snow,260,2013-01-01 20:40:00
2:53 PM,10.0,3.0,73,30.11,5.0,West,6.9,-,0.00,,Haze,270,2013-01-01 20:53:00
3:53 PM,10.0,3.9,76,30.11,3.0,WSW,5.8,-,0.00,Snow,Light Snow,250,2013-01-01 21:53:00
4:53 PM,10.9,5.0,77,30.11,6.0,WSW,4.6,-,0.00,Snow,Light Snow,250,2013-01-01 22:53:00
5:04 PM,10.4,5.0,79,29.97,8.0,Calm,Calm,-,0.00,,Overcast,0,2013-01-01 23:04:00
5:53 PM,10.9,6.1,81,30.10,6.0,Calm,Calm,-,0.00,,Haze,0,2013-01-01 23:53:00
6:45 PM,10.4,6.8,85,29.96,9.0,SSW,5.8,-,N/A,,Overcast,210,2013-01-02 00:45:00
6:53 PM,10.9,7.0,84,30.09,9.0,Variable,3.5,-,N/A,,Overcast,0,2013-01-02 00:53:00
7:53 PM,10.9,7.0,84,30.08,10.0,South,4.6,-,N/A,,Overcast,170,2013-01-02 01:53:00
8:53 PM,10.9,8.1,88,30.05,9.0,Calm,Calm,-,N/A,,Overcast,0,2013-01-02 02:53:00
9:27 PM,12.2,8.6,85,29.91,7.0,Calm,Calm,-,N/A,,Overcast,0,2013-01-02 03:27:00
9:53 PM,12.9,10.0,88,30.02,7.0,Calm,Calm,-,N/A,,Overcast,0,2013-01-02 03:53:00
10:53 PM,12.9,10.0,88,30.01,6.0,Variable,4.6,-,N/A,,Overcast,0,2013-01-02 04:53:00
11:21 PM,14.0,10.4,86,29.89,7.0,South,4.6,-,N/A,,Overcast,190,2013-01-02 05:21:00
11:53 PM,14.0,10.9,88,29.99,7.0,South,3.5,-,N/A,,Overcast,180,2013-01-02 05:53:00